Home   Weather   Mariehamn   Past weeks

Flag for Åland Islands Past Weather in Mariehamn, Åland Islands — Yesterday and Last 2 Weeks

Now
32 °F

Sunny.


Feels Like: 29 °F
Forecast: 28 / 31 °F
Wind: 3 mph from Northeast

Location: Mariehamn / Aland Island

Current Time: Dec 10, 2016 at 10:59:29 am

Latest Report: Dec 10, 2016 at 10:20 am


Visibility: 10 mi

Pressure: 29.83 "Hg

Humidity: 75%

Dew Point: 25 °F

Location of MariehamnLocation

Past Weather in Mariehamn — Graph

°F

Mariehamn Temperature Yesterday

Maximum temperature yesterday: 43 °F (at 12:20 am)
Minimum temperature yesterday: 36 °F (at 10:50 pm)
Average temperature yesterday: 41 °F

High & Low Weather Summary for the Past Weeks

 TemperatureHumidityPressure
High45 °F (Nov 26, 11:50 am)100% (Nov 25, 9:20 am)30.39 "Hg (Nov 25, 9:20 am)
Low16 °F (Dec 4, 3:20 am)56% (Nov 28, 4:20 am)29.27 "Hg (Nov 26, 2:20 pm)
Average35 °F81%29.77 "Hg
* Reported Nov 25 9:20 am — Dec 10 9:20 am, Mariehamn, Weather by CustomWeather, © 2016

Note: Actual official high and low records may vary slightly from our data, if they occured in-between our weather recording intervals... More about our weather records

Advertising

Mariehamn Weather History for the Previous 24 Hours

Scroll right to see more
 ConditionsComfort  
Time TempWeatherWind HumidityBarometerVisibility
9:20 am
Sat, Dec 10
32 °FPassing clouds.2 mph75%29.80 "HgN/A
8:50 am32 °FPassing clouds.2 mph80%29.80 "HgN/A
8:20 am32 °FPassing clouds.3 mph87%29.80 "HgN/A
7:50 am30 °FPassing clouds.3 mph93%29.80 "HgN/A
7:20 am32 °FPartly cloudy.2 mph87%29.80 "HgN/A
6:50 am32 °FOvercast.2 mph93%29.80 "HgN/A
6:20 am32 °FOvercast.2 mph93%29.80 "HgN/A
5:50 am32 °FOvercast.No wind93%29.80 "HgN/A
5:20 am32 °FPartly cloudy.No wind87%29.80 "HgN/A
4:50 am32 °FPassing clouds.1 mph87%29.80 "HgN/A
4:20 am34 °FOvercast.No wind87%29.80 "HgN/A
3:50 am34 °FPassing clouds.1 mph87%29.80 "HgN/A
3:20 am34 °FPassing clouds.2 mph93%29.80 "HgN/A
2:50 am34 °FOvercast.No wind93%29.80 "HgN/A
2:20 am34 °FLight rain. Overcast.1 mph93%29.80 "HgN/A
1:50 am36 °FOvercast.No wind87%29.80 "HgN/A
1:20 am34 °FOvercast.No wind93%29.80 "HgN/A
12:50 am36 °FOvercast.No wind87%29.80 "HgN/A
12:20 am36 °FOvercast.3 mph87%29.80 "HgN/A
11:50 pm
Fri, Dec 9
36 °FOvercast.3 mph87%29.80 "HgN/A
11:20 pm36 °FMostly cloudy.3 mph87%29.77 "HgN/A
10:50 pm36 °FOvercast.3 mph93%29.77 "HgN/A
10:20 pm37 °FOvercast.3 mph87%29.77 "HgN/A
9:50 pm37 °FOvercast.3 mph87%29.74 "HgN/A
8:50 pm37 °FPassing clouds.5 mph93%29.71 "HgN/A
8:20 pm37 °FMostly cloudy.5 mph100%29.71 "Hg3 mi
7:50 pm39 °FLow clouds.9 mph93%29.71 "HgN/A
7:20 pm39 °FLow clouds.8 mph93%29.68 "HgN/A
6:50 pm41 °FLow clouds.9 mph93%29.65 "Hg4 mi
6:20 pm41 °FLow clouds.9 mph93%29.65 "HgN/A
5:50 pm41 °FPassing clouds.9 mph87%29.62 "HgN/A
5:20 pm43 °FPassing clouds.9 mph81%29.62 "HgN/A
4:50 pm43 °FPassing clouds.10 mph81%29.59 "HgN/A
4:20 pm43 °FPassing clouds.8 mph81%29.59 "HgN/A
3:50 pm43 °FPassing clouds.8 mph76%29.56 "HgN/A
3:20 pm43 °FSunny.7 mph76%29.56 "Hg10 mi
2:50 pm43 °FPassing clouds.5 mph81%29.53 "HgN/A
2:20 pm43 °FPassing clouds.6 mph81%29.53 "HgN/A
1:50 pm43 °FBroken clouds.7 mph81%29.53 "HgN/A
1:20 pm43 °FBroken clouds.8 mph81%29.53 "HgN/A
12:50 pm43 °FPartly sunny.7 mph87%29.53 "HgN/A
12:20 pm43 °FPassing clouds.8 mph81%29.53 "HgN/A
11:50 am39 °FSunny.2 mph93%29.50 "Hg10 mi
11:20 am41 °FPassing clouds.6 mph87%29.50 "HgN/A
10:50 am39 °FSunny.6 mph93%29.50 "Hg10 mi
10:20 am41 °FBroken clouds.5 mph87%29.53 "HgN/A
Weather by CustomWeather, © 2016

See weather overviewHow to use our weather pages